Latest Weather Observations for Lord Howe Island

IDN60801

Issued at 2:05 pm EST Thursday 21 August 2014 (issued every 30 minutes, with the page automatically refreshed every 10 minutes)

About weather observations | Map of weather stations | Latest weather observations for NSW | Other Formats
Station Details ID: 200839 Name: LORD HOWE ISLAND AERO Lat: -31.54 Lon: 159.08 Height: 5.0 m
Data from the previous 72 hours. | See also: Recent months at Lord Howe Island
Date/Time
EST
Temp
°C
App
Temp
°C
Dew
Point
Rel
Hum
%
Delta-T
°C
Wind Press
QNH
hPa
Press
MSL
hPa
Rain
since 9 am
mm
Dir
 
Spd
km/h
Gust
km/h
Spd
kts
Gust
kts
21/01:30pm 17.7 15.3 6.8 49 5.4 WNW 9 19 5 10 1023.1 - 0.2
21/01:00pm 18.5 15.1 6.1 44 6.1 W 13 24 7 13 1023.1 - 0.2
21/12:30pm 18.1 14.5 5.2 42 6.2 S 13 28 7 15 1023.2 - 0.2
21/12:00pm 17.9 14.4 5.5 44 6.0 SW 13 32 7 17 1023.5 - 0.2
21/11:30am 17.1 14.1 6.0 48 5.4 WNW 11 28 6 15 1023.8 1023.8 0.2
21/11:00am 17.6 13.3 7.7 52 5.0 E 20 33 11 18 1023.9 - 0.2
21/10:30am 17.9 12.8 7.8 51 5.1 E 24 39 13 21 1024.1 - 0.2
21/10:00am 18.0 13.2 7.2 49 5.4 E 22 37 12 20 1024.0 - 0.2
21/09:30am 18.0 12.5 7.7 51 5.2 E 26 39 14 21 1024.2 - 0.2
21/09:00am 17.2 13.0 7.6 53 4.8 ESE 19 32 10 17 1024.1 - 0.2
21/08:30am 17.3 13.0 7.8 53 4.8 E 20 30 11 16 1024.1 1024.1 3.4
21/08:00am 16.4 14.9 8.5 59 4.0 E 6 9 3 5 1023.9 - 3.4
21/07:30am 16.3 14.7 8.9 61 3.8 SSE 7 17 4 9 1023.8 - 3.4
21/07:00am 16.2 14.8 9.4 64 3.5 SE 7 13 4 7 1023.5 - -
21/06:30am 15.0 11.6 9.1 68 3.0 SE 17 28 9 15 1023.1 - 3.4
21/06:00am 15.1 13.0 9.7 70 2.8 SE 11 22 6 12 1022.8 - 3.4
21/05:30am 15.0 13.1 10.4 74 2.4 ESE 11 24 6 13 1022.5 1022.5 3.4
21/05:02am 14.5 10.9 11.7 83 1.5 ESE 22 43 12 23 1022.1 - -
21/05:00am 14.5 10.9 11.7 83 1.5 ESE 22 43 12 23 1022.2 - -
21/04:30am 15.9 13.2 8.8 62 3.6 ESE 13 24 7 13 1021.7 - -
21/04:00am 16.1 14.6 8.4 60 3.9 ESE 6 13 3 7 1021.5 - -
21/03:30am 15.6 13.4 8.0 60 3.8 SE 9 20 5 11 1021.4 - -
21/03:00am 15.4 13.6 9.6 68 3.0 SE 9 22 5 12 1021.1 - -
21/02:30am 15.8 12.7 8.9 63 3.5 SE 15 26 8 14 1021.0 1021.0 -
21/02:00am 15.9 13.3 9.3 65 3.4 SSE 13 22 7 12 1020.8 - -
21/01:30am 15.9 13.0 8.1 60 3.9 SE 13 24 7 13 1021.0 - -
21/01:00am 16.2 13.0 8.3 59 4.0 SE 15 24 8 13 1021.1 - -
21/12:30am 15.7 13.4 10.4 71 2.8 SE 13 20 7 11 1021.1 - -
21/12:00am 16.5 13.8 8.9 61 3.9 SE 13 20 7 11 1020.9 - -
 
Date/Time
EST
Temp
°C
App
Temp
°C
Dew
Point
Rel
Hum
%
Delta-T
°C
Wind Press
QNH
hPa
Press
MSL
hPa
Rain
since 9 am
mm
Dir
 
Spd
km/h
Gust
km/h
Spd
kts
Gust
kts
20/11:30pm 16.3 13.5 8.6 60 3.9 SE 13 20 7 11 1020.7 1020.7 -
20/11:00pm 15.9 13.8 9.7 66 3.2 ESE 11 22 6 12 1020.5 - -
20/10:30pm 15.5 14.9 11.8 78 2.0 ESE 6 19 3 10 1020.5 - -
20/10:28pm 15.6 15.0 11.7 77 2.1 ESE 6 19 3 10 1020.5 - -
20/10:12pm 15.4 12.1 11.7 78 2.0 ESE 20 44 11 24 1020.4 - -
20/10:06pm 16.2 10.7 10.7 70 2.9 E 30 43 16 23 1020.1 - -
20/10:00pm 16.5 15.0 10.7 68 3.1 ESE 9 24 5 13 1020.3 - -
20/09:30pm 16.6 14.9 9.7 63 3.6 SSE 9 20 5 11 1020.0 - -
20/09:00pm 16.4 14.4 10.3 67 3.2 W 11 24 6 13 1019.9 - -
20/08:30pm 16.8 15.3 10.6 67 3.3 S 9 15 5 8 1019.6 1019.6 -
20/08:00pm 16.9 15.3 10.3 65 3.5 NW 9 24 5 13 1019.4 - -
20/07:30pm 16.9 14.6 10.5 66 3.4 SSE 13 22 7 12 1019.1 - -
20/07:00pm 17.0 15.5 10.4 65 3.5 SSE 9 24 5 13 1019.0 - -
20/06:30pm 16.8 14.6 10.8 67 3.2 ESE 13 37 7 20 1018.8 - -
20/06:00pm 16.9 14.2 10.3 65 3.5 ESE 15 30 8 16 1018.3 - -
20/05:30pm 17.2 15.4 9.3 59 4.1 S 9 19 5 10 1017.7 1017.7 -
20/05:00pm - - - - - ESE 11 19 6 10 - - -
20/04:30pm 17.7 15.9 10.8 64 3.7 WNW 11 32 6 17 1016.9 - -
20/04:00pm 17.9 15.6 10.6 62 3.9 ESE 13 28 7 15 1016.4 - -
20/03:30pm 18.3 - 10.5 60 4.2 - - - - - 1015.8 - -
20/02:30pm 18.1 16.1 11.5 65 3.6 S 13 28 7 15 1015.0 1015.0 1.6
20/01:30pm 19.4 17.4 11.4 60 4.4 SSW 13 28 7 15 1014.7 - 1.6
20/01:00pm 18.5 16.4 11.3 63 3.9 SSW 13 30 7 16 1014.4 - 1.6
20/12:30pm 18.3 15.6 11.7 65 3.6 SW 17 28 9 15 1014.3 - 1.6
20/12:00pm 17.4 15.7 12.3 72 2.8 SSW 13 41 7 22 1014.3 - 1.6
20/11:30am 16.9 15.2 13.5 80 1.9 S 15 32 8 17 1014.6 1014.6 1.6
20/11:16am 18.0 15.8 13.4 74 2.6 SSW 17 37 9 20 1014.5 - 0.8
20/11:00am 18.1 15.7 11.3 64 3.7 SSW 15 28 8 15 1014.5 - 0.8
20/10:30am 18.6 15.8 12.7 68 3.3 S 19 30 10 16 1014.3 - 0.8
20/10:06am 17.8 16.7 13.2 74 2.6 S 11 22 6 12 1014.2 - 0.8
20/10:00am 17.2 15.6 12.7 75 2.5 SE 13 19 7 10 1014.3 - 0.8
20/09:30am 19.2 17.0 12.2 64 3.9 S 15 26 8 14 1014.0 - 0.0
20/09:00am 18.5 16.3 10.9 61 4.1 SE 13 26 7 14 1013.7 - 0.0
20/08:30am 18.8 17.3 11.9 64 3.8 S 11 20 6 11 1013.3 1013.3 0.0
20/08:00am 17.8 15.1 13.0 73 2.7 SSW 19 32 10 17 1013.0 - 0.0
20/07:30am 18.3 15.8 13.4 73 2.8 SW 19 28 10 15 1012.6 - 0.0
20/07:00am 18.1 15.6 13.5 74 2.6 SW 19 28 10 15 1012.1 - 0.0
20/06:30am 17.7 15.6 13.5 76 2.4 SW 17 28 9 15 1011.7 - 0.0
20/06:00am 17.6 15.0 13.2 75 2.5 SW 19 26 10 14 1011.3 - 0.0
20/05:30am 17.3 15.5 13.2 77 2.3 SSW 15 28 8 15 1010.7 1010.7 0.0
20/05:00am 17.4 15.1 13.1 76 2.4 SW 17 32 9 17 1010.4 - 0.0
20/04:30am 17.6 14.5 13.5 77 2.3 SW 22 32 12 17 1010.0 - 0.0
20/04:00am 17.6 14.7 12.4 71 2.9 SW 19 30 10 16 1009.7 - 0.0
20/03:30am 17.6 14.2 12.6 72 2.8 SW 22 33 12 18 1009.4 - 0.0
20/03:00am 17.5 14.6 12.3 71 2.9 SW 19 26 10 14 1009.2 - 0.0
20/02:30am 17.4 14.5 12.3 72 2.8 SW 19 26 10 14 1009.0 1009.0 0.0
20/02:00am 17.5 14.7 12.7 73 2.7 SW 19 26 10 14 1008.9 - 0.0
20/01:30am 17.4 14.3 11.7 69 3.1 SW 19 28 10 15 1008.8 - 0.0
20/01:00am 17.4 15.0 12.5 73 2.7 SW 17 26 9 14 1008.9 - 0.0
20/12:30am 17.4 15.2 12.1 71 2.9 SW 15 24 8 13 1008.9 - 0.0
20/12:00am 17.4 14.6 12.5 73 2.7 SW 19 26 10 14 1009.0 - 0.0
 
Date/Time
EST
Temp
°C
App
Temp
°C
Dew
Point
Rel
Hum
%
Delta-T
°C
Wind Press
QNH
hPa
Press
MSL
hPa
Rain
since 9 am
mm
Dir
 
Spd
km/h
Gust
km/h
Spd
kts
Gust
kts
19/11:30pm 17.3 14.3 11.8 70 3.0 SW 19 26 10 14 1008.8 1008.8 0.0
19/11:00pm 17.2 14.9 11.9 71 2.9 SW 15 24 8 13 1008.8 - 0.0
19/10:30pm 17.2 14.8 11.3 68 3.2 SW 15 24 8 13 1008.7 - 0.0
19/10:00pm 17.4 14.6 11.5 68 3.2 SW 17 24 9 13 1008.5 - 0.0
19/09:30pm 17.5 14.5 12.1 70 3.0 SW 19 24 10 13 1008.5 - 0.0
19/09:00pm 17.6 14.6 11.8 69 3.2 SW 19 26 10 14 1008.4 - 0.0
19/08:30pm 17.7 14.6 12.3 70 3.0 SW 20 32 11 17 1008.2 1008.2 0.0
19/08:00pm 17.8 14.6 13.2 74 2.6 SW 22 32 12 17 1008.1 - 0.0
19/07:30pm 18.0 15.0 13.6 75 2.5 SW 22 32 12 17 1007.8 - 0.0
19/07:00pm 17.7 15.2 13.5 76 2.4 SW 19 30 10 16 1007.5 - 0.0
19/06:30pm 17.7 13.5 13.5 76 2.4 WSW 28 35 15 19 1007.2 - 0.0
19/06:00pm 17.7 12.6 13.1 74 2.6 WSW 32 39 17 21 1006.8 - 0.0
19/05:30pm 17.8 13.4 12.8 72 2.8 WSW 28 35 15 19 1006.5 1006.5 0.0
19/05:00pm 17.6 13.0 12.2 70 3.0 WSW 28 33 15 18 1006.1 - 0.0
19/04:30pm 17.8 13.5 12.0 69 3.2 WSW 26 33 14 18 1005.9 - 0.0
19/04:00pm 17.8 13.6 11.0 64 3.7 SW 24 30 13 16 1005.5 - 0.0
19/03:30pm 18.0 13.1 11.2 64 3.7 WSW 28 37 15 20 1005.4 - 0.0
19/03:00pm 18.2 14.0 11.0 63 3.9 SW 24 33 13 18 1005.2 - 0.0
19/02:30pm 17.9 12.8 10.7 62 3.9 WSW 28 37 15 20 1005.0 1005.0 0.0
19/02:00pm 18.5 14.4 11.4 63 3.9 SW 24 35 13 19 1004.8 - 0.0
19/01:30pm 18.7 14.4 12.2 66 3.6 SW 26 35 14 19 1004.8 - 0.0
19/01:00pm 18.6 13.9 12.1 66 3.6 WSW 28 35 15 19 1004.8 - 0.0
19/12:30pm 18.1 12.6 11.7 66 3.5 WSW 32 41 17 22 1004.9 - 0.0
19/12:00pm 18.3 13.9 12.8 70 3.1 WSW 28 33 15 18 1005.1 - 0.0
19/11:30am 18.8 13.7 11.9 64 3.8 WSW 30 35 16 19 1005.5 1005.5 0.0
19/11:00am 18.4 14.4 13.1 71 3.0 WSW 26 32 14 17 1005.5 - 0.0
19/10:30am 17.8 14.4 12.4 70 3.0 WSW 22 28 12 15 1005.8 - 0.0
19/10:00am 18.3 15.8 13.6 74 2.7 SW 19 26 10 14 1005.9 - 0.0
19/09:30am 18.3 14.7 13.0 71 3.0 W 24 28 13 15 1005.9 - 0.0
19/09:00am 18.3 14.8 13.4 73 2.8 WSW 24 30 13 16 1005.8 - 0.0
19/08:30am 18.5 15.8 13.0 70 3.1 W 19 28 10 15 1005.7 1005.7 12.8
19/08:00am 18.1 16.7 12.3 69 3.2 WNW 11 17 6 9 1005.7 - 12.8
19/07:30am 17.8 15.8 11.4 66 3.5 W 13 20 7 11 1005.5 - 12.8
19/07:00am 17.0 14.2 11.5 70 3.0 W 17 20 9 11 1005.3 - 12.8
19/06:30am 17.1 14.0 11.6 70 3.0 W 19 24 10 13 1005.2 - 12.8
19/06:00am 16.9 12.8 11.6 71 2.9 W 24 30 13 16 1005.1 - 12.8
19/05:30am 16.8 12.0 10.2 65 3.5 W 26 32 14 17 1004.9 1004.9 12.8
19/05:00am 16.8 11.3 10.6 67 3.3 W 30 37 16 20 1004.6 - 12.8
19/04:30am 16.9 11.3 10.1 64 3.6 W 30 37 16 20 1004.4 - 12.8
19/04:00am 16.9 10.3 9.9 63 3.7 W 35 43 19 23 1004.3 - 12.8
19/03:30am 16.7 10.6 10.5 67 3.3 W 33 41 18 22 1004.2 - 12.8
19/03:00am 16.7 10.2 10.3 66 3.4 W 35 44 19 24 1004.2 - 12.8
19/02:30am 16.8 11.8 11.1 69 3.1 W 28 37 15 20 1004.3 1004.3 12.8
19/02:00am 16.7 11.8 10.1 65 3.5 W 26 33 14 18 1004.4 - 12.8
19/01:30am 16.6 11.3 10.0 65 3.5 W 28 33 15 18 1004.6 - 12.8
19/01:00am 16.5 11.0 10.5 67 3.2 W 30 37 16 20 1005.0 - 12.8
19/12:30am 16.3 10.7 10.3 67 3.2 W 30 35 16 19 1005.1 - 12.8
19/12:00am 16.2 11.0 10.4 68 3.1 W 28 33 15 18 1005.3 - 12.8
 
Date/Time
EST
Temp
°C
App
Temp
°C
Dew
Point
Rel
Hum
%
Delta-T
°C
Wind Press
QNH
hPa
Press
MSL
hPa
Rain
since 9 am
mm
Dir
 
Spd
km/h
Gust
km/h
Spd
kts
Gust
kts
18/11:30pm 15.8 10.2 11.4 75 2.4 W 32 35 17 19 1005.3 1005.3 12.8
18/11:00pm 16.2 11.4 11.6 74 2.5 W 28 33 15 18 1005.5 - 12.8
18/10:30pm 15.2 8.6 11.3 77 2.1 WSW 37 50 20 27 1005.6 - 12.8
18/10:26pm 14.4 7.6 10.6 78 2.0 WSW 37 50 20 27 1005.6 - 12.8
18/10:15pm 16.5 10.1 11.9 74 2.5 W 37 57 20 31 1005.5 - 12.8
18/10:00pm 17.4 11.1 11.1 66 3.4 W 35 43 19 23 1005.1 - 12.8
18/09:30pm 17.2 11.2 10.0 62 3.8 W 32 43 17 23 1005.4 - 12.8
18/09:00pm 17.0 12.2 11.5 70 3.0 W 28 39 15 21 1005.4 - 12.8
18/08:41pm 15.3 12.5 12.6 84 1.5 W 19 30 10 16 1005.6 - 12.8
18/08:32pm 15.3 10.6 12.0 81 1.8 W 28 46 15 25 1005.6 - 12.8
18/08:30pm 15.4 10.1 12.5 83 1.6 W 32 46 17 25 1005.7 1005.7 12.8
18/08:25pm 15.5 10.0 12.6 83 1.6 W 33 46 18 25 1005.8 - 12.4
18/08:00pm 17.1 11.6 11.8 71 2.9 W 32 43 17 23 1005.5 - 12.0
18/07:30pm 15.8 12.7 12.1 78 2.0 W 20 28 11 15 1005.2 - 12.0
18/07:28pm 15.5 12.3 12.0 79 1.9 W 20 28 11 15 1005.2 - 12.0
18/07:00pm 14.3 11.7 11.9 85 1.3 NNW 17 37 9 20 1006.0 - 9.8
18/06:43pm 16.1 14.7 13.4 84 1.5 WNW 13 20 7 11 1005.3 - 7.8
18/06:30pm 17.2 11.7 11.9 71 2.9 W 32 39 17 21 1005.1 - 6.8
18/06:24pm 17.1 12.6 12.6 75 2.5 W 28 39 15 21 1005.1 - 6.8
18/06:00pm 16.1 14.7 13.4 84 1.5 NW 13 19 7 10 1005.4 - 6.8
18/05:34pm 15.6 12.1 13.3 86 1.3 W 24 30 13 16 1004.7 - 6.8
18/05:30pm 15.5 12.0 13.4 87 1.2 W 24 33 13 18 1004.8 1004.8 6.8
18/05:13pm 14.7 8.3 11.9 83 1.5 W 37 56 20 30 1005.2 - 5.8
18/05:12pm 15.2 8.4 12.1 82 1.7 W 39 56 21 30 1005.3 - 4.2
18/05:10pm 16.3 9.2 13.5 83 1.6 W 43 56 23 30 1005.0 - 2.8
18/05:00pm 17.7 15.4 12.9 73 2.7 WNW 17 26 9 14 1004.5 - 2.8
18/04:30pm 17.4 14.9 12.4 72 2.8 NW 17 24 9 13 1004.4 - 2.8
18/04:00pm 17.2 13.9 10.9 66 3.4 NNW 19 33 10 18 1004.6 - 2.8
18/03:57pm 16.8 13.6 11.1 69 3.1 NNW 19 33 10 18 1004.6 - 2.8
18/03:34pm 16.8 12.3 12.7 77 2.3 NNW 28 39 15 21 1004.9 - 0.6
18/03:30pm 19.1 16.4 11.7 62 4.1 N 17 33 9 18 1004.0 - 0.0
18/03:00pm 19.4 16.5 11.0 58 4.6 NW 17 26 9 14 1004.3 - 0.0
18/02:30pm 19.6 17.4 10.8 56 4.8 NNW 13 26 7 14 1004.5 1004.5 0.0
18/02:00pm 20.3 16.7 10.6 53 5.3 NNW 20 30 11 16 1004.7 - 0.0

Other Formats:

Comma delimited format used in spreadsheet applications
http://www.bom.gov.au/fwo/IDN60801/IDN60801.94995.axf

JavaScript Object Notation format (JSON) in row-major order
http://www.bom.gov.au/fwo/IDN60801/IDN60801.94995.json